Location: *
(50.3194°N, 7.1067°E)
Time: 21:05:31
(UTC+00:00)

Cosmos 1939 Rocket - Pass Details

Date: 22 September 2019
Orbit: 534 x 583 km, 97.4° (Epoch: 17 October)

Event Time Altitude Azimuth Distance (km) Brightness Sun altitude
Rises 18:35:20 0° 175° (S) 2,673 6.1 -11.1°
Reaches altitude 10° 18:37:28 10° 179° (S) 1,786 5.3 -11.4°
Maximum altitude 18:41:16 58° 259° (W) 629 3.4 -12.0°
Drops below altitude 10° 18:45:07 10° 340° (NNW) 1,805 6.0 -12.6°
Sets 18:47:16 0° 344° (NNW) 2,706 6.8 -12.9°
